| time (UTC) | temp C | wind direction | speed KPH | gust KPH | rain 1hr cm | rain 24hr cm | rain mn cm | humidity % | barometer mb |
| 20260504082003 | 10 | 335 | 0.0 | 3.2 | 0.00 | 0.03 | 0.00 | 75 | 1014.2 |
| 20260504081523 | 10 | 335 | 0.0 | 9.7 | 0.00 | 0.03 | 0.00 | 74 | 1014.3 |
| 20260504081007 | 10 | 335 | 0.0 | 9.7 | 0.00 | 0.03 | 0.00 | 74 | 1014.3 |
| 20260504080506 | 10 | 1 | 1.6 | 8.0 | 0.00 | 0.03 | 0.00 | 74 | 1014.4 |
| 20260504050506 | 10 | 46 | 3.2 | 9.7 | 0.00 | 0.03 | 0.00 | 69 | 1015.2 |
| 20260504050015 | 10 | 84 | 0.0 | 9.7 | 0.00 | 0.03 | 0.00 | 70 | 1015.2 |
| 20260504045507 | 10 | 91 | 1.6 | 8.0 | 0.00 | 0.03 | 0.03 | 70 | 1015.3 |
| 20260504045004 | 10 | 23 | 0.0 | 4.8 | 0.00 | 0.03 | 0.03 | 70 | 1015.2 |
| 20260504044523 | 10 | 105 | 0.0 | 3.2 | 0.00 | 0.03 | 0.03 | 70 | 1015.3 |
| 20260504044007 | 10 | 13 | 0.0 | 0.0 | 0.00 | 0.03 | 0.03 | 70 | 1015.4 |
| 20260504043507 | 10 | 13 | 0.0 | 0.0 | 0.00 | 0.03 | 0.03 | 70 | 1015.5 |
| 20260504043026 | 10 | 13 | 0.0 | 0.0 | 0.00 | 0.03 | 0.03 | 69 | 1015.6 |
| 20260504042508 | 10 | 13 | 0.0 | 1.6 | 0.00 | 0.03 | 0.03 | 69 | 1015.5 |
| 20260504042011 | 10 | 13 | 0.0 | 1.6 | 0.00 | 0.03 | 0.03 | 69 | 1015.6 |
| 20260504041529 | 10 | 13 | 0.0 | 0.0 | 0.00 | 0.03 | 0.03 | 69 | 1015.7 |
| 20260504041007 | 10 | 13 | 0.0 | 0.0 | 0.00 | 0.03 | 0.03 | 69 | 1015.7 |
| 20260504040511 | 10 | 13 | 0.0 | 0.0 | 0.00 | 0.03 | 0.03 | 68 | 1015.8 |
| 20260504040030 | 10 | 13 | 0.0 | 0.0 | 0.00 | 0.03 | 0.03 | 68 | 1015.8 |
| 20260504035511 | 10 | 13 | 0.0 | 0.0 | 0.00 | 0.03 | 0.03 | 68 | 1015.9 |
| 20260504035003 | 10 | 13 | 0.0 | 0.0 | 0.00 | 0.03 | 0.03 | 68 | 1015.8 |
| 20260504034522 | 10 | 13 | 0.0 | 0.0 | 0.00 | 0.03 | 0.03 | 68 | 1015.9 |
| 20260504034010 | 11 | 13 | 0.0 | 0.0 | 0.00 | 0.03 | 0.03 | 69 | 1015.9 |
| 20260504033507 | 11 | 13 | 0.0 | 0.0 | 0.00 | 0.03 | 0.03 | 67 | 1016.0 |
| 20260504033025 | 11 | 13 | 0.0 | 0.0 | 0.00 | 0.03 | 0.03 | 67 | 1015.9 |
| 20260504032508 | 11 | 13 | 0.0 | 0.0 | 0.00 | 0.03 | 0.03 | 67 | 1015.9 |
| 20260504032013 | 11 | 13 | 0.0 | 0.0 | 0.00 | 0.03 | 0.03 | 67 | 1016.0 |
| 20260504031529 | 11 | 13 | 0.0 | 1.6 | 0.00 | 0.03 | 0.03 | 65 | 1016.0 |
| 20260504031007 | 11 | 13 | 0.0 | 1.6 | 0.00 | 0.03 | 0.03 | 66 | 1016.0 |
| 20260504030508 | 11 | 13 | 0.0 | 1.6 | 0.00 | 0.03 | 0.03 | 66 | 1016.0 |
| 20260504030029 | 11 | 13 | 0.0 | 1.6 | 0.00 | 0.03 | 0.03 | 66 | 1016.0 |
| 20260504025508 | 11 | 13 | 0.0 | 1.6 | 0.00 | 0.03 | 0.03 | 64 | 1016.0 |
| 20260504025011 | 11 | 13 | 0.0 | 0.0 | 0.00 | 0.03 | 0.03 | 65 | 1016.0 |
| 20260504024530 | 11 | 13 | 0.0 | 1.6 | 0.00 | 0.03 | 0.03 | 64 | 1016.0 |
| 20260504024011 | 11 | 13 | 0.0 | 1.6 | 0.00 | 0.03 | 0.03 | 64 | 1015.9 |
| 20260504023505 | 11 | 13 | 0.0 | 0.0 | 0.00 | 0.03 | 0.03 | 64 | 1016.0 |
| 20260504023022 | 11 | 13 | 0.0 | 0.0 | 0.00 | 0.03 | 0.03 | 63 | 1016.0 |
| 20260504022516 | 11 | 13 | 0.0 | 0.0 | 0.00 | 0.03 | 0.03 | 62 | 1015.9 |
| 20260504022010 | 12 | 13 | 0.0 | 0.0 | 0.00 | 0.03 | 0.03 | 63 | 1015.9 |
| 20260504021528 | 12 | 13 | 0.0 | 0.0 | 0.00 | 0.03 | 0.03 | 64 | 1015.9 |
| 20260504021009 | 12 | 13 | 0.0 | 0.0 | 0.00 | 0.03 | 0.03 | 62 | 1015.8 |
| 20260504020507 | 12 | 13 | 0.0 | 1.6 | 0.00 | 0.03 | 0.03 | 61 | 1015.8 |
| 20260504020028 | 12 | 13 | 0.0 | 1.6 | 0.00 | 0.03 | 0.03 | 61 | 1015.7 |
| 20260504015508 | 12 | 13 | 0.0 | 3.2 | 0.00 | 0.03 | 0.03 | 61 | 1015.7 |
| 20260504015016 | 12 | 13 | 0.0 | 3.2 | 0.00 | 0.03 | 0.03 | 61 | 1015.5 |
| 20260504014542 | 12 | 13 | 0.0 | 1.6 | 0.00 | 0.03 | 0.03 | 59 | 1015.4 |
| 20260504014011 | 12 | 13 | 0.0 | 1.6 | 0.00 | 0.03 | 0.03 | 60 | 1015.3 |
| 20260504013512 | 13 | 13 | 0.0 | 0.0 | 0.00 | 0.03 | 0.03 | 60 | 1015.3 |
| 20260504013034 | 13 | 13 | 0.0 | 0.0 | 0.00 | 0.03 | 0.03 | 58 | 1015.3 |
| 20260504012515 | 13 | 13 | 0.0 | 0.0 | 0.00 | 0.03 | 0.03 | 57 | 1015.4 |
| 20260504012010 | 13 | 13 | 0.0 | 1.6 | 0.00 | 0.03 | 0.03 | 58 | 1015.4 |
| 20260504011522 | 13 | 13 | 0.0 | 1.6 | 0.00 | 0.03 | 0.03 | 55 | 1015.4 |
| 20260504011010 | 14 | 13 | 0.0 | 0.0 | 0.00 | 0.03 | 0.03 | 55 | 1015.4 |
| 20260504010514 | 15 | 13 | 0.0 | 0.0 | 0.00 | 0.03 | 0.03 | 53 | 1015.5 |
| 20260504010028 | 15 | 13 | 0.0 | 0.0 | 0.00 | 0.03 | 0.03 | 53 | 1015.7 |
| 20260504005508 | 15 | 13 | 0.0 | 0.0 | 0.00 | 0.03 | 0.03 | 54 | 1015.7 |
| 20260504005013 | 15 | 13 | 0.0 | 0.0 | 0.00 | 0.03 | 0.03 | 53 | 1015.7 |
| 20260504004530 | 15 | 13 | 0.0 | 0.0 | 0.00 | 0.03 | 0.03 | 50 | 1015.7 |
| 20260504004008 | 16 | 13 | 0.0 | 0.0 | 0.00 | 0.03 | 0.03 | 51 | 1015.6 |
| 20260504003507 | 16 | 13 | 0.0 | 0.0 | 0.00 | 0.03 | 0.03 | 52 | 1015.5 |
| 20260504003018 | 16 | 13 | 0.0 | 1.6 | 0.00 | 0.03 | 0.03 | 51 | 1015.5 |
| 20260504002508 | 17 | 13 | 0.0 | 1.6 | 0.00 | 0.03 | 0.03 | 48 | 1015.4 |
| 20260504002002 | 17 | 13 | 0.0 | 1.6 | 0.00 | 0.03 | 0.03 | 48 | 1015.4 |
| 20260504001503 | 17 | 13 | 0.0 | 1.6 | 0.00 | 0.03 | 0.03 | 47 | 1015.5 |
| 20260504001004 | 17 | 13 | 0.0 | 3.2 | 0.00 | 0.03 | 0.03 | 50 | 1015.6 |
| 20260504000504 | 18 | 13 | 0.0 | 4.8 | 0.00 | 0.03 | 0.03 | 49 | 1015.6 |
| 20260504000006 | 18 | 13 | 0.0 | 4.8 | 0.00 | 0.03 | 0.03 | 46 | 1015.6 |
| 20260503235505 | 18 | 324 | 0.0 | 8.0 | 0.00 | 0.03 | 0.03 | 45 | 1015.7 |
| 20260503235003 | 19 | 68 | 3.2 | 8.0 | 0.00 | 0.03 | 0.03 | 38 | 1015.7 |
| 20260503234509 | 19 | 60 | 3.2 | 8.0 | 0.00 | 0.03 | 0.03 | 38 | 1015.9 |
| 20260503234004 | 19 | 36 | 3.2 | 8.0 | 0.00 | 0.03 | 0.03 | 38 | 1015.9 |
| 20260503233504 | 19 | 67 | 1.6 | 9.7 | 0.00 | 0.03 | 0.03 | 37 | 1015.9 |
| 20260503233019 | 19 | 91 | 3.2 | 9.7 | 0.00 | 0.03 | 0.03 | 36 | 1015.9 |
| 20260503232505 | 20 | 109 | 3.2 | 11.3 | 0.00 | 0.03 | 0.03 | 36 | 1015.9 |
| 20260503232004 | 20 | 51 | 4.8 | 12.9 | 0.00 | 0.03 | 0.03 | 36 | 1016.0 |
| 20260503231520 | 20 | 51 | 6.4 | 12.9 | 0.00 | 0.03 | 0.03 | 36 | 1015.9 |
| 20260503231005 | 20 | 107 | 3.2 | 8.0 | 0.00 | 0.03 | 0.03 | 37 | 1016.0 |
| 20260503230502 | 20 | 64 | 3.2 | 11.3 | 0.00 | 0.03 | 0.03 | 36 | 1015.9 |
| 20260503230004 | 20 | 54 | 3.2 | 12.9 | 0.00 | 0.03 | 0.03 | 38 | 1015.9 |
| 20260503225506 | 20 | 77 | 4.8 | 12.9 | 0.00 | 0.03 | 0.03 | 35 | 1016.0 |
| 20260503225003 | 20 | 67 | 4.8 | 11.3 | 0.00 | 0.03 | 0.03 | 34 | 1015.9 |
| 20260503224507 | 20 | 90 | 1.6 | 9.7 | 0.00 | 0.03 | 0.03 | 36 | 1015.9 |
| 20260503224007 | 20 | 63 | 3.2 | 9.7 | 0.00 | 0.03 | 0.03 | 37 | 1016.0 |
| 20260503223504 | 20 | 68 | 4.8 | 11.3 | 0.00 | 0.03 | 0.03 | 38 | 1016.2 |
| 20260503223013 | 20 | 107 | 4.8 | 12.9 | 0.00 | 0.03 | 0.03 | 35 | 1016.3 |
| 20260503222504 | 20 | 65 | 6.4 | 14.5 | 0.00 | 0.03 | 0.03 | 35 | 1016.3 |
| 20260503222004 | 20 | 86 | 4.8 | 14.5 | 0.00 | 0.03 | 0.03 | 36 | 1016.5 |
| 20260503221519 | 20 | 59 | 6.4 | 11.3 | 0.00 | 0.03 | 0.03 | 36 | 1016.5 |
| 20260503221007 | 20 | 320 | 3.2 | 14.5 | 0.00 | 0.03 | 0.03 | 35 | 1016.5 |
| 20260503220508 | 20 | 127 | 4.8 | 14.5 | 0.00 | 0.03 | 0.03 | 36 | 1016.8 |
| 20260503220025 | 20 | 73 | 3.2 | 9.7 | 0.00 | 0.03 | 0.03 | 36 | 1016.7 |
| 20260503215510 | 20 | 81 | 3.2 | 8.0 | 0.00 | 0.03 | 0.03 | 37 | 1016.8 |
| 20260503215002 | 20 | 90 | 1.6 | 12.9 | 0.00 | 0.03 | 0.03 | 38 | 1016.9 |
| 20260503214518 | 20 | 100 | 4.8 | 14.5 | 0.00 | 0.03 | 0.03 | 37 | 1017.0 |
| 20260503214003 | 20 | 70 | 4.8 | 14.5 | 0.00 | 0.03 | 0.03 | 36 | 1017.0 |
| 20260503213507 | 20 | 68 | 4.8 | 14.5 | 0.00 | 0.03 | 0.03 | 37 | 1017.1 |
| 20260503213012 | 20 | 41 | 4.8 | 14.5 | 0.00 | 0.03 | 0.03 | 35 | 1017.1 |
| 20260503212504 | 20 | 94 | 6.4 | 11.3 | 0.00 | 0.03 | 0.03 | 34 | 1017.2 |
| 20260503212005 | 20 | 75 | 3.2 | 12.9 | 0.00 | 0.03 | 0.03 | 35 | 1017.3 |
| 20260503211516 | 20 | 115 | 4.8 | 14.5 | 0.00 | 0.03 | 0.03 | 36 | 1017.4 |
| 20260503211007 | 20 | 54 | 6.4 | 20.9 | 0.00 | 0.03 | 0.03 | 35 | 1017.4 |
| 20260503210507 | 20 | 356 | 3.2 | 20.9 | 0.00 | 0.03 | 0.03 | 35 | 1017.4 |
| 20260503210039 | 20 | 111 | 3.2 | 12.9 | 0.00 | 0.03 | 0.03 | 34 | 1017.5 |
| 20260503205516 | 20 | 115 | 3.2 | 11.3 | 0.00 | 0.03 | 0.03 | 36 | 1017.6 |
| 20260503205007 | 20 | 115 | 4.8 | 17.7 | 0.00 | 0.03 | 0.03 | 34 | 1017.6 |
| 20260503204525 | 20 | 68 | 3.2 | 17.7 | 0.00 | 0.03 | 0.03 | 41 | 1017.7 |
| 20260503204013 | 20 | 51 | 6.4 | 11.3 | 0.00 | 0.03 | 0.03 | 33 | 1017.9 |
| 20260503203502 | 20 | 56 | 3.2 | 12.9 | 0.00 | 0.03 | 0.03 | 35 | 1018.0 |
| 20260503203014 | 20 | 77 | 3.2 | 12.9 | 0.00 | 0.03 | 0.03 | 34 | 1018.1 |
| 20260503202504 | 20 | 70 | 4.8 | 19.3 | 0.00 | 0.03 | 0.03 | 33 | 1018.3 |
| 20260503202004 | 20 | 61 | 3.2 | 19.3 | 0.00 | 0.03 | 0.03 | 37 | 1018.3 |
| 20260503201513 | 20 | 92 | 6.4 | 16.1 | 0.00 | 0.03 | 0.03 | 36 | 1018.3 |
| 20260503201004 | 20 | 77 | 3.2 | 14.5 | 0.00 | 0.03 | 0.03 | 36 | 1018.5 |
| 20260503200509 | 20 | 86 | 4.8 | 14.5 | 0.00 | 0.03 | 0.03 | 39 | 1018.6 |
| 20260503200022 | 20 | 66 | 3.2 | 14.5 | 0.00 | 0.03 | 0.03 | 35 | 1018.6 |
| 20260503195507 | 20 | 73 | 1.6 | 14.5 | 0.00 | 0.03 | 0.03 | 38 | 1018.7 |
| 20260503195009 | 20 | 59 | 6.4 | 14.5 | 0.00 | 0.03 | 0.03 | 36 | 1018.8 |
| 20260503194523 | 20 | 45 | 1.6 | 11.3 | 0.00 | 0.03 | 0.03 | 38 | 1018.9 |
| 20260503194007 | 20 | 99 | 1.6 | 11.3 | 0.00 | 0.03 | 0.03 | 41 | 1018.9 |
| 20260503193508 | 20 | 136 | 3.2 | 16.1 | 0.00 | 0.03 | 0.03 | 37 | 1018.9 |
| 20260503193025 | 19 | 72 | 1.6 | 16.1 | 0.00 | 0.03 | 0.03 | 40 | 1019.1 |
| 20260503192508 | 20 | 43 | 6.4 | 12.9 | 0.00 | 0.03 | 0.03 | 39 | 1019.1 |
| 20260503192005 | 20 | 64 | 1.6 | 8.0 | 0.00 | 0.03 | 0.03 | 41 | 1019.2 |
| 20260503191510 | 19 | 359 | 1.6 | 12.9 | 0.00 | 0.03 | 0.03 | 38 | 1019.1 |
| 20260503191003 | 19 | 77 | 0.0 | 12.9 | 0.00 | 0.03 | 0.03 | 42 | 1019.2 |
| 20260503190506 | 19 | 30 | 4.8 | 12.9 | 0.00 | 0.03 | 0.03 | 38 | 1019.3 |
| 20260503190017 | 19 | 70 | 3.2 | 11.3 | 0.00 | 0.03 | 0.03 | 38 | 1019.3 |
| 20260503185504 | 19 | 127 | 1.6 | 11.3 | 0.00 | 0.03 | 0.03 | 38 | 1019.5 |
| 20260503185009 | 18 | 89 | 1.6 | 14.5 | 0.00 | 0.03 | 0.03 | 37 | 1019.6 |
| 20260503184527 | 18 | 37 | 4.8 | 14.5 | 0.00 | 0.03 | 0.03 | 38 | 1019.7 |
| 20260503184011 | 18 | 100 | 1.6 | 11.3 | 0.00 | 0.03 | 0.03 | 42 | 1019.7 |
| 20260503183511 | 18 | 160 | 3.2 | 11.3 | 0.00 | 0.03 | 0.03 | 38 | 1019.8 |
| 20260503183025 | 18 | 199 | 4.8 | 14.5 | 0.00 | 0.03 | 0.03 | 38 | 1019.8 |
| 20260503182507 | 18 | 167 | 1.6 | 14.5 | 0.00 | 0.03 | 0.03 | 37 | 1019.9 |
| 20260503182010 | 18 | 77 | 3.2 | 11.3 | 0.00 | 0.03 | 0.03 | 37 | 1020.0 |
| 20260503181525 | 18 | 62 | 6.4 | 11.3 | 0.00 | 0.03 | 0.03 | 37 | 1020.0 |
| 20260503181010 | 18 | 219 | 3.2 | 9.7 | 0.00 | 0.03 | 0.03 | 36 | 1020.1 |
| 20260503180504 | 18 | 167 | 3.2 | 11.3 | 0.00 | 0.03 | 0.03 | 40 | 1020.1 |
| 20260503180014 | 18 | 200 | 3.2 | 11.3 | 0.00 | 0.03 | 0.03 | 37 | 1020.2 |
| 20260503175503 | 18 | 42 | 3.2 | 11.3 | 0.00 | 0.03 | 0.03 | 39 | 1020.2 |
| 20260503175003 | 17 | 199 | 1.6 | 14.5 | 0.00 | 0.03 | 0.03 | 38 | 1020.2 |
| 20260503174521 | 17 | 82 | 3.2 | 14.5 | 0.00 | 0.03 | 0.03 | 43 | 1020.3 |
| 20260503174010 | 17 | 100 | 1.6 | 11.3 | 0.00 | 0.03 | 0.03 | 39 | 1020.4 |
| 20260503173505 | 17 | 103 | 1.6 | 11.3 | 0.00 | 0.03 | 0.03 | 38 | 1020.5 |
| 20260503173024 | 17 | 83 | 1.6 | 11.3 | 0.00 | 0.03 | 0.03 | 39 | 1020.6 |
| 20260503172509 | 17 | 67 | 1.6 | 12.9 | 0.00 | 0.03 | 0.03 | 40 | 1020.6 |
| 20260503172013 | 17 | 53 | 4.8 | 14.5 | 0.00 | 0.03 | 0.03 | 40 | 1020.8 |
| 20260503171528 | 17 | 96 | 8.0 | 14.5 | 0.00 | 0.03 | 0.03 | 38 | 1020.7 |
| 20260503171008 | 16 | 59 | 3.2 | 6.4 | 0.00 | 0.03 | 0.03 | 38 | 1020.8 |
| 20260503170508 | 16 | 73 | 3.2 | 8.0 | 0.00 | 0.03 | 0.03 | 40 | 1020.9 |
| 20260503151003 | 13 | 303 | 0.0 | 11.3 | 0.00 | 0.03 | 0.03 | 54 | 1021.9 |
| 20260503150503 | 13 | 96 | 3.2 | 11.3 | 0.00 | 0.03 | 0.03 | 49 | 1022.0 |
| 20260503131004 | 5 | 212 | 0.0 | 0.0 | 0.00 | 0.00 | 0.00 | 94 | 1021.9 |
| 20260503130506 | 5 | 84 | 0.0 | 0.0 | 0.00 | 0.00 | 0.00 | 94 | 1021.9 |
| 20260503110506 | 3 | 226 | 0.0 | 0.0 | 0.00 | 0.00 | 0.00 | 92 | 1020.7 |
| 20260503090505 | 4 | 226 | 0.0 | 0.0 | 0.00 | 0.00 | 0.00 | 92 | 1020.2 |